#datetime,building,power
2022-10-04T00:00:00,mcc,60.28
2022-10-04T00:01:00,mcc,48.87
2022-10-04T00:02:00,mcc,48.00
2022-10-04T00:03:00,mcc,49.39
2022-10-04T00:04:00,mcc,48.61
2022-10-04T00:05:00,mcc,48.15
2022-10-04T00:06:00,mcc,47.85
2022-10-04T00:07:00,mcc,48.63
2022-10-04T00:08:00,mcc,50.52
2022-10-04T00:09:00,mcc,50.36
2022-10-04T00:10:00,mcc,54.58
2022-10-04T00:11:00,mcc,52.01
2022-10-04T00:12:00,mcc,56.08
2022-10-04T00:13:00,mcc,51.10
2022-10-04T00:14:00,mcc,48.97
2022-10-04T00:15:00,mcc,50.66
2022-10-04T00:16:00,mcc,49.27
2022-10-04T00:17:00,mcc,51.23
2022-10-04T00:18:00,mcc,48.87
2022-10-04T00:19:00,mcc,49.20
2022-10-04T00:20:00,mcc,58.05
2022-10-04T00:21:00,mcc,47.53
2022-10-04T00:22:00,mcc,47.07
2022-10-04T00:23:00,mcc,46.33
2022-10-04T00:24:00,mcc,47.53
2022-10-04T00:25:00,mcc,45.17
2022-10-04T00:26:00,mcc,44.52
2022-10-04T00:27:00,mcc,44.26
2022-10-04T00:28:00,mcc,42.28
2022-10-04T00:29:00,mcc,41.39
2022-10-04T00:30:00,mcc,44.66
2022-10-04T00:31:00,mcc,45.09
2022-10-04T00:32:00,mcc,43.25
2022-10-04T00:33:00,mcc,43.61
2022-10-04T00:34:00,mcc,46.83
2022-10-04T00:35:00,mcc,56.20
2022-10-04T00:36:00,mcc,56.14
2022-10-04T00:37:00,mcc,46.48
2022-10-04T00:38:00,mcc,44.79
2022-10-04T00:39:00,mcc,52.89
2022-10-04T00:40:00,mcc,47.27
2022-10-04T00:41:00,mcc,45.72
2022-10-04T00:42:00,mcc,44.74
2022-10-04T00:43:00,mcc,44.20
2022-10-04T00:44:00,mcc,44.16
2022-10-04T00:45:00,mcc,41.84
2022-10-04T00:46:00,mcc,42.82
2022-10-04T00:47:00,mcc,43.73
2022-10-04T00:48:00,mcc,42.16
2022-10-04T00:49:00,mcc,42.76
2022-10-04T00:50:00,mcc,42.82
2022-10-04T00:51:00,mcc,45.28
2022-10-04T00:52:00,mcc,43.23
2022-10-04T00:53:00,mcc,42.23
2022-10-04T00:54:00,mcc,43.32
2022-10-04T00:55:00,mcc,39.06
2022-10-04T00:56:00,mcc,40.89
2022-10-04T00:57:00,mcc,37.83
2022-10-04T00:58:00,mcc,40.08
2022-10-04T00:59:00,mcc,45.59
2022-10-04T01:00:00,mcc,38.17
2022-10-04T01:01:00,mcc,42.27
2022-10-04T01:02:00,mcc,42.34
2022-10-04T01:03:00,mcc,41.69
2022-10-04T01:04:00,mcc,45.15
2022-10-04T01:05:00,mcc,42.86
2022-10-04T01:06:00,mcc,54.64
2022-10-04T01:07:00,mcc,50.68
2022-10-04T01:08:00,mcc,53.56
2022-10-04T01:09:00,mcc,51.34
2022-10-04T01:10:00,mcc,42.22
2022-10-04T01:11:00,mcc,45.15
2022-10-04T01:12:00,mcc,46.19
2022-10-04T01:13:00,mcc,43.80
2022-10-04T01:14:00,mcc,42.73
2022-10-04T01:15:00,mcc,43.54
2022-10-04T01:16:00,mcc,41.07
2022-10-04T01:17:00,mcc,42.01
2022-10-04T01:18:00,mcc,47.63
2022-10-04T01:19:00,mcc,42.64
2022-10-04T01:20:00,mcc,43.01
2022-10-04T01:21:00,mcc,41.48
2022-10-04T01:22:00,mcc,42.82
2022-10-04T01:23:00,mcc,39.47
2022-10-04T01:24:00,mcc,39.11
2022-10-04T01:25:00,mcc,41.63
2022-10-04T01:26:00,mcc,38.44
2022-10-04T01:27:00,mcc,39.18
2022-10-04T01:28:00,mcc,40.61
2022-10-04T01:29:00,mcc,42.91
2022-10-04T01:30:00,mcc,41.18
2022-10-04T01:31:00,mcc,40.25
2022-10-04T01:32:00,mcc,41.37
2022-10-04T01:33:00,mcc,39.99
2022-10-04T01:34:00,mcc,38.07
2022-10-04T01:35:00,mcc,38.91
2022-10-04T01:36:00,mcc,39.21
2022-10-04T01:37:00,mcc,49.57
2022-10-04T01:38:00,mcc,40.90
2022-10-04T01:39:00,mcc,43.05
2022-10-04T01:40:00,mcc,40.63
2022-10-04T01:41:00,mcc,51.25
2022-10-04T01:42:00,mcc,38.46
2022-10-04T01:43:00,mcc,38.96
2022-10-04T01:44:00,mcc,37.86
2022-10-04T01:45:00,mcc,38.45
2022-10-04T01:46:00,mcc,40.06
2022-10-04T01:47:00,mcc,37.55
2022-10-04T01:48:00,mcc,37.54
2022-10-04T01:49:00,mcc,36.55
2022-10-04T01:50:00,mcc,39.88
2022-10-04T01:51:00,mcc,39.48
2022-10-04T01:52:00,mcc,38.50
2022-10-04T01:53:00,mcc,41.66
2022-10-04T01:54:00,mcc,41.05
2022-10-04T01:55:00,mcc,42.06
2022-10-04T01:56:00,mcc,43.47
2022-10-04T01:57:00,mcc,50.99
2022-10-04T01:58:00,mcc,43.35
2022-10-04T01:59:00,mcc,42.39
2022-10-04T02:00:00,mcc,44.82
2022-10-04T02:01:00,mcc,44.11
2022-10-04T02:02:00,mcc,42.57
2022-10-04T02:03:00,mcc,41.07
2022-10-04T02:04:00,mcc,40.23
2022-10-04T02:05:00,mcc,40.34
2022-10-04T02:06:00,mcc,38.30
2022-10-04T02:07:00,mcc,39.36
2022-10-04T02:08:00,mcc,38.58
2022-10-04T02:09:00,mcc,38.48
2022-10-04T02:10:00,mcc,40.00
2022-10-04T02:11:00,mcc,39.72
2022-10-04T02:12:00,mcc,39.99
2022-10-04T02:13:00,mcc,39.86
2022-10-04T02:14:00,mcc,44.34
2022-10-04T02:15:00,mcc,41.23
2022-10-04T02:16:00,mcc,49.19
2022-10-04T02:17:00,mcc,42.35
2022-10-04T02:18:00,mcc,40.30
2022-10-04T02:19:00,mcc,39.78
2022-10-04T02:20:00,mcc,40.24
2022-10-04T02:21:00,mcc,41.97
2022-10-04T02:22:00,mcc,41.39
2022-10-04T02:23:00,mcc,41.39
2022-10-04T02:24:00,mcc,40.60
2022-10-04T02:25:00,mcc,42.71
2022-10-04T02:26:00,mcc,42.12
2022-10-04T02:27:00,mcc,43.37
2022-10-04T02:28:00,mcc,44.66
2022-10-04T02:29:00,mcc,42.30
2022-10-04T02:30:00,mcc,41.92
2022-10-04T02:31:00,mcc,42.03
2022-10-04T02:32:00,mcc,43.31
2022-10-04T02:33:00,mcc,40.72
2022-10-04T02:34:00,mcc,40.27
2022-10-04T02:35:00,mcc,41.27
2022-10-04T02:36:00,mcc,48.06
2022-10-04T02:37:00,mcc,39.75
2022-10-04T02:38:00,mcc,40.98
2022-10-04T02:39:00,mcc,44.45
2022-10-04T02:40:00,mcc,42.50
2022-10-04T02:41:00,mcc,40.67
2022-10-04T02:42:00,mcc,50.78
2022-10-04T02:43:00,mcc,47.07
2022-10-04T02:44:00,mcc,45.52
2022-10-04T02:45:00,mcc,46.66
2022-10-04T02:46:00,mcc,41.55
2022-10-04T02:47:00,mcc,51.70
2022-10-04T02:48:00,mcc,42.10
2022-10-04T02:49:00,mcc,42.11
2022-10-04T02:50:00,mcc,39.44
2022-10-04T02:51:00,mcc,40.45
2022-10-04T02:52:00,mcc,40.61
2022-10-04T02:53:00,mcc,43.49
2022-10-04T02:54:00,mcc,41.05
2022-10-04T02:55:00,mcc,39.96
2022-10-04T02:56:00,mcc,36.07
2022-10-04T02:57:00,mcc,40.26
2022-10-04T02:58:00,mcc,36.42
2022-10-04T02:59:00,mcc,37.27
2022-10-04T03:00:00,mcc,39.83
2022-10-04T03:01:00,mcc,38.10
2022-10-04T03:02:00,mcc,37.49
2022-10-04T03:03:00,mcc,40.38
2022-10-04T03:04:00,mcc,41.97
2022-10-04T03:05:00,mcc,42.20
2022-10-04T03:06:00,mcc,44.95
2022-10-04T03:07:00,mcc,46.19
2022-10-04T03:08:00,mcc,44.56
2022-10-04T03:09:00,mcc,40.90
2022-10-04T03:10:00,mcc,39.52
2022-10-04T03:11:00,mcc,38.94
2022-10-04T03:12:00,mcc,38.54
2022-10-04T03:13:00,mcc,40.22
2022-10-04T03:14:00,mcc,42.28
2022-10-04T03:15:00,mcc,50.57
2022-10-04T03:16:00,mcc,42.88
2022-10-04T03:17:00,mcc,44.73
2022-10-04T03:18:00,mcc,43.07
2022-10-04T03:19:00,mcc,42.81
2022-10-04T03:20:00,mcc,45.29
2022-10-04T03:21:00,mcc,42.60
2022-10-04T03:22:00,mcc,43.00
2022-10-04T03:23:00,mcc,40.44
2022-10-04T03:24:00,mcc,40.02
2022-10-04T03:25:00,mcc,42.07
2022-10-04T03:26:00,mcc,39.59
2022-10-04T03:27:00,mcc,38.89
2022-10-04T03:28:00,mcc,39.16
2022-10-04T03:29:00,mcc,37.59
2022-10-04T03:30:00,mcc,37.98
2022-10-04T03:31:00,mcc,39.42
2022-10-04T03:32:00,mcc,41.91
2022-10-04T03:33:00,mcc,40.79
2022-10-04T03:34:00,mcc,50.21
2022-10-04T03:35:00,mcc,41.20
2022-10-04T03:36:00,mcc,40.68
2022-10-04T03:37:00,mcc,43.30
2022-10-04T03:38:00,mcc,43.41
2022-10-04T03:39:00,mcc,44.45
2022-10-04T03:40:00,mcc,39.33
2022-10-04T03:41:00,mcc,40.05
2022-10-04T03:42:00,mcc,41.54
2022-10-04T03:43:00,mcc,39.75
2022-10-04T03:44:00,mcc,41.45
2022-10-04T03:45:00,mcc,42.25
2022-10-04T03:46:00,mcc,42.08
2022-10-04T03:47:00,mcc,40.74
2022-10-04T03:48:00,mcc,40.91
2022-10-04T03:49:00,mcc,40.87
2022-10-04T03:50:00,mcc,42.92
2022-10-04T03:51:00,mcc,40.27
2022-10-04T03:52:00,mcc,40.13
2022-10-04T03:53:00,mcc,40.58
2022-10-04T03:54:00,mcc,48.46
2022-10-04T03:55:00,mcc,41.72
2022-10-04T03:56:00,mcc,50.89
2022-10-04T03:57:00,mcc,52.61
2022-10-04T03:58:00,mcc,38.93
2022-10-04T03:59:00,mcc,38.80
2022-10-04T04:00:00,mcc,39.64
2022-10-04T04:01:00,mcc,40.44
2022-10-04T04:02:00,mcc,40.89
2022-10-04T04:03:00,mcc,41.42
2022-10-04T04:04:00,mcc,42.93
2022-10-04T04:05:00,mcc,41.01
2022-10-04T04:06:00,mcc,42.06
2022-10-04T04:07:00,mcc,39.61
2022-10-04T04:08:00,mcc,39.60
2022-10-04T04:09:00,mcc,40.02
2022-10-04T04:10:00,mcc,39.29
2022-10-04T04:11:00,mcc,44.86
2022-10-04T04:12:00,mcc,40.70
2022-10-04T04:13:00,mcc,49.50
2022-10-04T04:14:00,mcc,40.90
2022-10-04T04:15:00,mcc,40.90
2022-10-04T04:16:00,mcc,42.41
2022-10-04T04:17:00,mcc,42.41
2022-10-04T04:18:00,mcc,43.20
2022-10-04T04:19:00,mcc,39.27
2022-10-04T04:20:00,mcc,41.07
2022-10-04T04:21:00,mcc,41.12
2022-10-04T04:22:00,mcc,40.99
2022-10-04T04:23:00,mcc,39.27
2022-10-04T04:24:00,mcc,38.67
2022-10-04T04:25:00,mcc,39.41
2022-10-04T04:26:00,mcc,39.77
2022-10-04T04:27:00,mcc,39.49
2022-10-04T04:28:00,mcc,39.01
2022-10-04T04:29:00,mcc,41.46
2022-10-04T04:30:00,mcc,40.10
2022-10-04T04:31:00,mcc,40.89
2022-10-04T04:32:00,mcc,42.32
2022-10-04T04:33:00,mcc,52.97
2022-10-04T04:34:00,mcc,40.67
2022-10-04T04:35:00,mcc,39.68
2022-10-04T04:36:00,mcc,41.78
2022-10-04T04:37:00,mcc,44.13
2022-10-04T04:38:00,mcc,45.44
2022-10-04T04:39:00,mcc,48.25
2022-10-04T04:40:00,mcc,49.05
2022-10-04T04:41:00,mcc,48.79
2022-10-04T04:42:00,mcc,49.46
2022-10-04T04:43:00,mcc,52.50
2022-10-04T04:44:00,mcc,52.87
2022-10-04T04:45:00,mcc,53.55
2022-10-04T04:46:00,mcc,51.32
2022-10-04T04:47:00,mcc,50.99
2022-10-04T04:48:00,mcc,51.27
2022-10-04T04:49:00,mcc,50.28
2022-10-04T04:50:00,mcc,50.84
2022-10-04T04:51:00,mcc,47.91
2022-10-04T04:52:00,mcc,47.67
2022-10-04T04:53:00,mcc,55.40
2022-10-04T04:54:00,mcc,48.05
2022-10-04T04:55:00,mcc,45.90
2022-10-04T04:56:00,mcc,47.17
2022-10-04T04:57:00,mcc,49.27
2022-10-04T04:58:00,mcc,50.45
2022-10-04T04:59:00,mcc,48.36
2022-10-04T05:00:00,mcc,47.98
2022-10-04T05:01:00,mcc,50.70
2022-10-04T05:02:00,mcc,60.10
2022-10-04T05:03:00,mcc,46.11
2022-10-04T05:04:00,mcc,46.65
2022-10-04T05:05:00,mcc,48.80
2022-10-04T05:06:00,mcc,47.32
2022-10-04T05:07:00,mcc,48.03
2022-10-04T05:08:00,mcc,46.73
2022-10-04T05:09:00,mcc,46.78
2022-10-04T05:10:00,mcc,44.78
2022-10-04T05:11:00,mcc,46.40
2022-10-04T05:12:00,mcc,58.30
2022-10-04T05:13:00,mcc,48.16
2022-10-04T05:14:00,mcc,47.65
2022-10-04T05:15:00,mcc,45.61
2022-10-04T05:16:00,mcc,47.74
2022-10-04T05:17:00,mcc,45.46
2022-10-04T05:18:00,mcc,45.82
2022-10-04T05:19:00,mcc,48.93
2022-10-04T05:20:00,mcc,48.00
2022-10-04T05:21:00,mcc,48.61
2022-10-04T05:22:00,mcc,47.04
2022-10-04T05:23:00,mcc,59.72
2022-10-04T05:24:00,mcc,57.92
2022-10-04T05:25:00,mcc,57.11
2022-10-04T05:26:00,mcc,56.05
2022-10-04T05:27:00,mcc,46.94
2022-10-04T05:28:00,mcc,49.07
2022-10-04T05:29:00,mcc,49.55
2022-10-04T05:30:00,mcc,52.56
2022-10-04T05:31:00,mcc,48.54
2022-10-04T05:32:00,mcc,47.23
2022-10-04T05:33:00,mcc,45.54
2022-10-04T05:34:00,mcc,47.11
2022-10-04T05:35:00,mcc,48.18
2022-10-04T05:36:00,mcc,47.97
2022-10-04T05:37:00,mcc,48.97
2022-10-04T05:38:00,mcc,46.55
2022-10-04T05:39:00,mcc,46.33
2022-10-04T05:40:00,mcc,46.43
2022-10-04T05:41:00,mcc,53.01
2022-10-04T05:42:00,mcc,48.63
2022-10-04T05:43:00,mcc,48.83
2022-10-04T05:44:00,mcc,50.15
2022-10-04T05:45:00,mcc,48.22
2022-10-04T05:46:00,mcc,47.01
2022-10-04T05:47:00,mcc,45.76
2022-10-04T05:48:00,mcc,47.47
2022-10-04T05:49:00,mcc,46.41
2022-10-04T05:50:00,mcc,50.63
2022-10-04T05:51:00,mcc,52.90
2022-10-04T05:52:00,mcc,50.26
2022-10-04T05:53:00,mcc,51.00
2022-10-04T05:54:00,mcc,51.67
2022-10-04T05:55:00,mcc,52.70
2022-10-04T05:56:00,mcc,51.27
2022-10-04T05:57:00,mcc,49.72
2022-10-04T05:58:00,mcc,51.31
2022-10-04T05:59:00,mcc,54.31
2022-10-04T06:00:00,mcc,50.72
2022-10-04T06:01:00,mcc,50.74
2022-10-04T06:02:00,mcc,51.33
2022-10-04T06:03:00,mcc,50.80
2022-10-04T06:04:00,mcc,49.71
2022-10-04T06:05:00,mcc,62.59
2022-10-04T06:06:00,mcc,64.30
2022-10-04T06:07:00,mcc,49.37
2022-10-04T06:08:00,mcc,47.16
2022-10-04T06:09:00,mcc,48.64
2022-10-04T06:10:00,mcc,57.72
2022-10-04T06:11:00,mcc,48.78
2022-10-04T06:12:00,mcc,48.35
2022-10-04T06:13:00,mcc,50.45
2022-10-04T06:14:00,mcc,48.57
2022-10-04T06:15:00,mcc,49.46
2022-10-04T06:16:00,mcc,48.28
2022-10-04T06:17:00,mcc,49.06
2022-10-04T06:18:00,mcc,46.94
2022-10-04T06:19:00,mcc,46.32
2022-10-04T06:20:00,mcc,53.29
2022-10-04T06:21:00,mcc,60.32
2022-10-04T06:22:00,mcc,61.78
2022-10-04T06:23:00,mcc,62.73
2022-10-04T06:24:00,mcc,63.79
2022-10-04T06:25:00,mcc,69.76
2022-10-04T06:26:00,mcc,70.33
2022-10-04T06:27:00,mcc,71.90
2022-10-04T06:28:00,mcc,71.31
2022-10-04T06:29:00,mcc,66.94
2022-10-04T06:30:00,mcc,65.02
2022-10-04T06:31:00,mcc,65.27
2022-10-04T06:32:00,mcc,64.70
2022-10-04T06:33:00,mcc,59.62
2022-10-04T06:34:00,mcc,61.03
2022-10-04T06:35:00,mcc,53.04
2022-10-04T06:36:00,mcc,49.48
2022-10-04T06:37:00,mcc,52.76
2022-10-04T06:38:00,mcc,50.09
2022-10-04T06:39:00,mcc,52.13
2022-10-04T06:40:00,mcc,60.89
2022-10-04T06:41:00,mcc,52.97
2022-10-04T06:42:00,mcc,55.52
2022-10-04T06:43:00,mcc,51.84
2022-10-04T06:44:00,mcc,48.59
2022-10-04T06:45:00,mcc,57.93
2022-10-04T06:46:00,mcc,62.69
2022-10-04T06:47:00,mcc,74.10
2022-10-04T06:48:00,mcc,69.77
2022-10-04T06:49:00,mcc,64.13
2022-10-04T06:50:00,mcc,47.47
2022-10-04T06:51:00,mcc,47.83
2022-10-04T06:52:00,mcc,56.50
2022-10-04T06:53:00,mcc,50.78
2022-10-04T06:54:00,mcc,48.49
2022-10-04T06:55:00,mcc,50.00
2022-10-04T06:56:00,mcc,48.89
2022-10-04T06:57:00,mcc,51.04
2022-10-04T06:58:00,mcc,58.39
2022-10-04T06:59:00,mcc,51.88
2022-10-04T07:00:00,mcc,51.54
2022-10-04T07:01:00,mcc,51.81
2022-10-04T07:02:00,mcc,51.34
2022-10-04T07:03:00,mcc,51.14
2022-10-04T07:04:00,mcc,61.58
2022-10-04T07:05:00,mcc,51.61
2022-10-04T07:06:00,mcc,58.30
2022-10-04T07:07:00,mcc,59.36
2022-10-04T07:08:00,mcc,61.77
2022-10-04T07:09:00,mcc,59.50
2022-10-04T07:10:00,mcc,62.01
2022-10-04T07:11:00,mcc,51.78
2022-10-04T07:12:00,mcc,49.18
2022-10-04T07:13:00,mcc,50.98
2022-10-04T07:14:00,mcc,51.26
2022-10-04T07:15:00,mcc,54.53
2022-10-04T07:16:00,mcc,52.77
2022-10-04T07:17:00,mcc,52.43
2022-10-04T07:18:00,mcc,61.99
2022-10-04T07:19:00,mcc,59.35
2022-10-04T07:20:00,mcc,59.22
2022-10-04T07:21:00,mcc,51.05
2022-10-04T07:22:00,mcc,51.60
2022-10-04T07:23:00,mcc,50.57
2022-10-04T07:24:00,mcc,64.90
2022-10-04T07:25:00,mcc,60.34
2022-10-04T07:26:00,mcc,54.53
2022-10-04T07:27:00,mcc,51.51
2022-10-04T07:28:00,mcc,54.02
2022-10-04T07:29:00,mcc,55.36
2022-10-04T07:30:00,mcc,52.51
2022-10-04T07:31:00,mcc,52.48
2022-10-04T07:32:00,mcc,60.33
2022-10-04T07:33:00,mcc,53.91
2022-10-04T07:34:00,mcc,55.21
2022-10-04T07:35:00,mcc,52.93
2022-10-04T07:36:00,mcc,53.91
2022-10-04T07:37:00,mcc,56.13
2022-10-04T07:38:00,mcc,53.92
2022-10-04T07:39:00,mcc,55.45
2022-10-04T07:40:00,mcc,54.34
2022-10-04T07:41:00,mcc,57.63
2022-10-04T07:42:00,mcc,55.11
2022-10-04T07:43:00,mcc,61.89
2022-10-04T07:44:00,mcc,57.39
2022-10-04T07:45:00,mcc,53.51
2022-10-04T07:46:00,mcc,55.89
2022-10-04T07:47:00,mcc,56.45
2022-10-04T07:48:00,mcc,60.19
2022-10-04T07:49:00,mcc,56.34
2022-10-04T07:50:00,mcc,55.69
2022-10-04T07:51:00,mcc,71.84
2022-10-04T07:52:00,mcc,54.34
2022-10-04T07:53:00,mcc,61.18
2022-10-04T07:54:00,mcc,64.38
2022-10-04T07:55:00,mcc,73.57
2022-10-04T07:56:00,mcc,61.64
2022-10-04T07:57:00,mcc,69.70
2022-10-04T07:58:00,mcc,77.90
2022-10-04T07:59:00,mcc,61.65
2022-10-04T08:00:00,mcc,60.25
2022-10-04T08:01:00,mcc,61.52
2022-10-04T08:02:00,mcc,73.82
2022-10-04T08:03:00,mcc,63.64
2022-10-04T08:04:00,mcc,65.26
2022-10-04T08:05:00,mcc,54.45
2022-10-04T08:06:00,mcc,58.50
2022-10-04T08:07:00,mcc,57.77
2022-10-04T08:08:00,mcc,59.07
2022-10-04T08:09:00,mcc,66.19
2022-10-04T08:10:00,mcc,62.12
2022-10-04T08:11:00,mcc,59.10
2022-10-04T08:12:00,mcc,57.95
2022-10-04T08:13:00,mcc,57.15
2022-10-04T08:14:00,mcc,57.84
2022-10-04T08:15:00,mcc,57.64
2022-10-04T08:16:00,mcc,57.62
2022-10-04T08:17:00,mcc,59.44
2022-10-04T08:18:00,mcc,57.60
2022-10-04T08:19:00,mcc,59.02
2022-10-04T08:20:00,mcc,61.50
2022-10-04T08:21:00,mcc,67.21
2022-10-04T08:22:00,mcc,56.22
2022-10-04T08:23:00,mcc,52.45
2022-10-04T08:24:00,mcc,53.73
2022-10-04T08:25:00,mcc,55.02
2022-10-04T08:26:00,mcc,54.36
2022-10-04T08:27:00,mcc,54.97
2022-10-04T08:28:00,mcc,58.76
2022-10-04T08:29:00,mcc,72.53
2022-10-04T08:30:00,mcc,70.86
2022-10-04T08:31:00,mcc,71.74
2022-10-04T08:32:00,mcc,60.30
2022-10-04T08:33:00,mcc,59.21
2022-10-04T08:34:00,mcc,66.11
2022-10-04T08:35:00,mcc,56.89
2022-10-04T08:36:00,mcc,61.75
2022-10-04T08:37:00,mcc,61.83
2022-10-04T08:38:00,mcc,64.60
2022-10-04T08:39:00,mcc,65.50
2022-10-04T08:40:00,mcc,75.58
2022-10-04T08:41:00,mcc,58.86
2022-10-04T08:42:00,mcc,59.34
2022-10-04T08:43:00,mcc,58.95
2022-10-04T08:44:00,mcc,61.85
2022-10-04T08:45:00,mcc,58.54
2022-10-04T08:46:00,mcc,67.64
2022-10-04T08:47:00,mcc,63.73
2022-10-04T08:48:00,mcc,61.84
2022-10-04T08:49:00,mcc,60.09
2022-10-04T08:50:00,mcc,57.82
2022-10-04T08:51:00,mcc,56.54
2022-10-04T08:52:00,mcc,61.16
2022-10-04T08:53:00,mcc,58.44
2022-10-04T08:54:00,mcc,56.94
2022-10-04T08:55:00,mcc,56.01
2022-10-04T08:56:00,mcc,58.49
2022-10-04T08:57:00,mcc,56.54
2022-10-04T08:58:00,mcc,66.79
2022-10-04T08:59:00,mcc,66.61
2022-10-04T09:00:00,mcc,63.65
2022-10-04T09:01:00,mcc,54.95
2022-10-04T09:02:00,mcc,56.68
2022-10-04T09:03:00,mcc,76.41
2022-10-04T09:04:00,mcc,60.57
2022-10-04T09:05:00,mcc,61.98
2022-10-04T09:06:00,mcc,62.95
2022-10-04T09:07:00,mcc,69.21
2022-10-04T09:08:00,mcc,56.44
2022-10-04T09:09:00,mcc,58.06
2022-10-04T09:10:00,mcc,59.70
2022-10-04T09:11:00,mcc,57.95
2022-10-04T09:12:00,mcc,67.81
2022-10-04T09:13:00,mcc,60.66
2022-10-04T09:14:00,mcc,59.04
2022-10-04T09:15:00,mcc,62.76
2022-10-04T09:16:00,mcc,59.19
2022-10-04T09:17:00,mcc,70.09
2022-10-04T09:18:00,mcc,59.23
2022-10-04T09:19:00,mcc,61.38
2022-10-04T09:20:00,mcc,61.38
2022-10-04T09:21:00,mcc,67.21
2022-10-04T09:22:00,mcc,61.14
2022-10-04T09:23:00,mcc,58.26
2022-10-04T09:24:00,mcc,58.62
2022-10-04T09:25:00,mcc,59.30
2022-10-04T09:26:00,mcc,68.40
2022-10-04T09:27:00,mcc,58.02
2022-10-04T09:28:00,mcc,54.62
2022-10-04T09:29:00,mcc,54.41
2022-10-04T09:30:00,mcc,55.60
2022-10-04T09:31:00,mcc,62.44
2022-10-04T09:32:00,mcc,54.90
2022-10-04T09:33:00,mcc,57.32
2022-10-04T09:34:00,mcc,58.03
2022-10-04T09:35:00,mcc,57.84
2022-10-04T09:36:00,mcc,73.82
2022-10-04T09:37:00,mcc,68.99
2022-10-04T09:38:00,mcc,70.71
2022-10-04T09:39:00,mcc,69.32
2022-10-04T09:40:00,mcc,70.30
2022-10-04T09:41:00,mcc,70.86
2022-10-04T09:42:00,mcc,61.17
2022-10-04T09:43:00,mcc,59.65
2022-10-04T09:44:00,mcc,60.91
2022-10-04T09:45:00,mcc,59.07
2022-10-04T09:46:00,mcc,68.63
2022-10-04T09:47:00,mcc,61.16
2022-10-04T09:48:00,mcc,61.81
2022-10-04T09:49:00,mcc,64.36
2022-10-04T09:50:00,mcc,71.75
2022-10-04T09:51:00,mcc,62.28
2022-10-04T09:52:00,mcc,58.23
2022-10-04T09:53:00,mcc,65.66
2022-10-04T09:54:00,mcc,63.51
2022-10-04T09:55:00,mcc,72.53
2022-10-04T09:56:00,mcc,57.71
2022-10-04T09:57:00,mcc,55.43
2022-10-04T09:58:00,mcc,57.10
2022-10-04T09:59:00,mcc,62.82
2022-10-04T10:00:00,mcc,53.56
2022-10-04T10:01:00,mcc,54.69
2022-10-04T10:02:00,mcc,53.22
2022-10-04T10:03:00,mcc,54.42
2022-10-04T10:04:00,mcc,54.03
2022-10-04T10:05:00,mcc,53.02
2022-10-04T10:06:00,mcc,53.75
2022-10-04T10:07:00,mcc,57.29
2022-10-04T10:08:00,mcc,65.67
2022-10-04T10:09:00,mcc,57.09
2022-10-04T10:10:00,mcc,57.55
2022-10-04T10:11:00,mcc,60.41
2022-10-04T10:12:00,mcc,60.61
2022-10-04T10:13:00,mcc,61.87
2022-10-04T10:14:00,mcc,77.86
2022-10-04T10:15:00,mcc,60.67
2022-10-04T10:16:00,mcc,59.79
2022-10-04T10:17:00,mcc,62.86
2022-10-04T10:18:00,mcc,57.18
2022-10-04T10:19:00,mcc,57.05
2022-10-04T10:20:00,mcc,60.41
2022-10-04T10:21:00,mcc,60.33
2022-10-04T10:22:00,mcc,59.06
2022-10-04T10:23:00,mcc,62.20
2022-10-04T10:24:00,mcc,58.27
2022-10-04T10:25:00,mcc,59.65
2022-10-04T10:26:00,mcc,70.79
2022-10-04T10:27:00,mcc,60.52
2022-10-04T10:28:00,mcc,59.45
2022-10-04T10:29:00,mcc,67.12
2022-10-04T10:30:00,mcc,61.33
2022-10-04T10:31:00,mcc,76.37
2022-10-04T10:32:00,mcc,59.88
2022-10-04T10:33:00,mcc,69.53
2022-10-04T10:34:00,mcc,55.61
2022-10-04T10:35:00,mcc,66.05
2022-10-04T10:36:00,mcc,60.66
2022-10-04T10:37:00,mcc,63.56
2022-10-04T10:38:00,mcc,61.19
2022-10-04T10:39:00,mcc,65.62
2022-10-04T10:40:00,mcc,58.71
2022-10-04T10:41:00,mcc,68.92
2022-10-04T10:42:00,mcc,58.39
2022-10-04T10:43:00,mcc,58.27
2022-10-04T10:44:00,mcc,61.62
2022-10-04T10:45:00,mcc,58.36
2022-10-04T10:46:00,mcc,63.52
2022-10-04T10:47:00,mcc,66.85
2022-10-04T10:48:00,mcc,64.44
2022-10-04T10:49:00,mcc,63.92
2022-10-04T10:50:00,mcc,56.38
2022-10-04T10:51:00,mcc,57.27
2022-10-04T10:52:00,mcc,63.69
2022-10-04T10:53:00,mcc,68.67
2022-10-04T10:54:00,mcc,77.36
2022-10-04T10:55:00,mcc,65.47
2022-10-04T10:56:00,mcc,66.48
2022-10-04T10:57:00,mcc,81.68
2022-10-04T10:58:00,mcc,66.35
2022-10-04T10:59:00,mcc,58.91
2022-10-04T11:00:00,mcc,67.67
2022-10-04T11:01:00,mcc,56.65
2022-10-04T11:02:00,mcc,52.58
2022-10-04T11:03:00,mcc,54.77
2022-10-04T11:04:00,mcc,57.68
2022-10-04T11:05:00,mcc,54.99
2022-10-04T11:06:00,mcc,58.89
2022-10-04T11:07:00,mcc,77.16
2022-10-04T11:08:00,mcc,61.73
2022-10-04T11:09:00,mcc,55.76
2022-10-04T11:10:00,mcc,55.83
2022-10-04T11:11:00,mcc,57.23
2022-10-04T11:12:00,mcc,56.89
2022-10-04T11:13:00,mcc,56.96
2022-10-04T11:14:00,mcc,54.35
2022-10-04T11:15:00,mcc,66.58
2022-10-04T11:16:00,mcc,66.89
2022-10-04T11:17:00,mcc,59.90
2022-10-04T11:18:00,mcc,58.91
2022-10-04T11:19:00,mcc,58.88
2022-10-04T11:20:00,mcc,57.57
2022-10-04T11:21:00,mcc,55.95
2022-10-04T11:22:00,mcc,62.34
2022-10-04T11:23:00,mcc,63.53
2022-10-04T11:24:00,mcc,57.51
2022-10-04T11:25:00,mcc,57.28
2022-10-04T11:26:00,mcc,60.52
2022-10-04T11:27:00,mcc,60.94
2022-10-04T11:28:00,mcc,57.98
2022-10-04T11:29:00,mcc,57.43
2022-10-04T11:30:00,mcc,67.68
2022-10-04T11:31:00,mcc,69.88
2022-10-04T11:32:00,mcc,57.47
2022-10-04T11:33:00,mcc,55.85
2022-10-04T11:34:00,mcc,71.62
2022-10-04T11:35:00,mcc,57.20
2022-10-04T11:36:00,mcc,57.74
2022-10-04T11:37:00,mcc,53.59
2022-10-04T11:38:00,mcc,63.16
2022-10-04T11:39:00,mcc,57.94
2022-10-04T11:40:00,mcc,57.77
2022-10-04T11:41:00,mcc,58.51
2022-10-04T11:42:00,mcc,55.85
2022-10-04T11:43:00,mcc,58.87
2022-10-04T11:44:00,mcc,67.06
2022-10-04T11:45:00,mcc,56.77
2022-10-04T11:46:00,mcc,58.07
2022-10-04T11:47:00,mcc,56.02
2022-10-04T11:48:00,mcc,60.22
2022-10-04T11:49:00,mcc,64.07
2022-10-04T11:50:00,mcc,62.65
2022-10-04T11:51:00,mcc,66.59
2022-10-04T11:52:00,mcc,67.17
2022-10-04T11:53:00,mcc,63.09
2022-10-04T11:54:00,mcc,55.68
2022-10-04T11:55:00,mcc,57.26
2022-10-04T11:56:00,mcc,56.39
2022-10-04T11:57:00,mcc,67.55
2022-10-04T11:58:00,mcc,70.25
2022-10-04T11:59:00,mcc,60.90
2022-10-04T12:00:00,mcc,63.80
2022-10-04T12:01:00,mcc,67.79
2022-10-04T12:02:00,mcc,66.80
2022-10-04T12:03:00,mcc,59.39
2022-10-04T12:04:00,mcc,58.70
2022-10-04T12:05:00,mcc,59.21
2022-10-04T12:06:00,mcc,68.76
2022-10-04T12:07:00,mcc,59.89
2022-10-04T12:08:00,mcc,68.47
2022-10-04T12:09:00,mcc,62.27
2022-10-04T12:10:00,mcc,58.49
2022-10-04T12:11:00,mcc,59.59
2022-10-04T12:12:00,mcc,63.26
2022-10-04T12:13:00,mcc,58.60
2022-10-04T12:14:00,mcc,60.49
2022-10-04T12:15:00,mcc,56.12
2022-10-04T12:16:00,mcc,59.04
2022-10-04T12:17:00,mcc,57.76
2022-10-04T12:18:00,mcc,67.02
2022-10-04T12:19:00,mcc,61.94
2022-10-04T12:20:00,mcc,59.89
2022-10-04T12:21:00,mcc,63.43
2022-10-04T12:22:00,mcc,59.86
2022-10-04T12:23:00,mcc,59.29
2022-10-04T12:24:00,mcc,66.94
2022-10-04T12:25:00,mcc,56.95
2022-10-04T12:26:00,mcc,61.97
2022-10-04T12:27:00,mcc,58.20
2022-10-04T12:28:00,mcc,60.38
2022-10-04T12:29:00,mcc,57.61
2022-10-04T12:30:00,mcc,68.08
2022-10-04T12:31:00,mcc,64.67
2022-10-04T12:32:00,mcc,57.51
2022-10-04T12:33:00,mcc,62.12
2022-10-04T12:34:00,mcc,58.55
2022-10-04T12:35:00,mcc,61.03
2022-10-04T12:36:00,mcc,65.99
2022-10-04T12:37:00,mcc,62.01
2022-10-04T12:38:00,mcc,59.47
2022-10-04T12:39:00,mcc,59.71
2022-10-04T12:40:00,mcc,72.51
2022-10-04T12:41:00,mcc,63.55
2022-10-04T12:42:00,mcc,59.11
2022-10-04T12:43:00,mcc,67.46
2022-10-04T12:44:00,mcc,58.89
2022-10-04T12:45:00,mcc,57.86
2022-10-04T12:46:00,mcc,57.88
2022-10-04T12:47:00,mcc,64.90
2022-10-04T12:48:00,mcc,56.55
2022-10-04T12:49:00,mcc,65.00
2022-10-04T12:50:00,mcc,60.10
2022-10-04T12:51:00,mcc,55.25
2022-10-04T12:52:00,mcc,57.97
2022-10-04T12:53:00,mcc,59.17
2022-10-04T12:54:00,mcc,56.11
2022-10-04T12:55:00,mcc,62.42
2022-10-04T12:56:00,mcc,57.81
2022-10-04T12:57:00,mcc,56.16
2022-10-04T12:58:00,mcc,55.52
2022-10-04T12:59:00,mcc,58.73
2022-10-04T13:00:00,mcc,59.28
2022-10-04T13:01:00,mcc,56.60
2022-10-04T13:02:00,mcc,60.97
2022-10-04T13:03:00,mcc,53.41
2022-10-04T13:04:00,mcc,58.90
2022-10-04T13:05:00,mcc,58.29
2022-10-04T13:06:00,mcc,57.27
2022-10-04T13:07:00,mcc,54.24
2022-10-04T13:08:00,mcc,55.21
2022-10-04T13:09:00,mcc,58.06
2022-10-04T13:10:00,mcc,69.77
2022-10-04T13:11:00,mcc,57.72
2022-10-04T13:12:00,mcc,59.60
2022-10-04T13:13:00,mcc,60.86
2022-10-04T13:14:00,mcc,69.67
2022-10-04T13:15:00,mcc,62.11
2022-10-04T13:16:00,mcc,59.19
2022-10-04T13:17:00,mcc,60.26
2022-10-04T13:18:00,mcc,56.90